sat.trackr.live / text

‹ back to catalog

STARLINK-34224

NORAD 64251 · 2025-119U

PAYLOAD ACTIVE UNKNOWN

§ Identity

Operator
Country
US
Launch date
2025-06-03
Launch site
AFETR
Launch vehicle
Mass (kg)
RCS (m²)

Purposes: comms

External: N2YO · Heavens-Above · Gunter

§ Orbital elements

Epoch: 2026-09-20T02:14:26.859552Z

Period
94.27 min
Inclination
43.0000°
Eccentricity
0.0000892
Mean motion
15.27585159 rev/d
Perigee alt
482.4 km
Apogee alt
483.6 km
Semi-major
6,861.2 km
B*
2.9899e-4
RAAN
288.9208°
Arg perigee
252.0180°
Mean anomaly
108.0574°
Rev number
7,390

§ Raw data

STARLINK-342241 64251U 25119U   26263.09336643  .00007976  00000+0  29899-3 0  99972 64251  43.0000 288.9208 0000892 252.0180 108.0574 15.27585159 73903

JSON: /api/v1/satellites/64251 · /tle

For live sub-satellite position, see the globe view (requires WebGL).

§ Visibility from observer

Set your observer location to see the next 7 days of passes ≥ 10°. The values pass through the URL so the page stays shareable.

No JS? Fill the form by hand. The geolocation button needs JavaScript.